Вернуться в каталог

METEOSAT 4 AKM

АктивенMEO
NORAD 20800·ROCKET BODY·🇪🇺 EU

Запущен Mar 6, 1989 с Guiana Space Centre

Loading…

Ближайшие Пролёты (ближайшие 24 часа)

TLE

СвежийSource: Space-Track

Эпоха: Sep 14, 2026, 13:55 UTC

1 20800U 89020E   26257.58026372 -.00000149  00000-0  00000+0 0  9998
2 20800  10.8888 330.7955 0132807 257.9379 137.7080  1.00426363117101

Отслеживайте METEOSAT 4 AKM в реальном времени с AllMySat

Download on the App Store